Year,Month,Day,Hour,Minute,Value (Times are PST for temperature in C)
2015,04,21,00,00,12.30
2015,04,21,00,01,12.30
2015,04,21,00,02,12.30
2015,04,21,00,03,12.30
2015,04,21,00,04,12.30
2015,04,21,00,05,12.30
2015,04,21,00,06,12.30
2015,04,21,00,07,12.30
2015,04,21,00,08,12.30
2015,04,21,00,09,12.30
2015,04,21,00,10,12.30
2015,04,21,00,11,12.30
2015,04,21,00,12,12.30
2015,04,21,00,13,12.20
2015,04,21,00,14,12.10
2015,04,21,00,15,12.10
2015,04,21,00,16,12.00
2015,04,21,00,17,12.00
2015,04,21,00,18,12.00
2015,04,21,00,19,12.00
2015,04,21,00,20,12.00
2015,04,21,00,21,12.00
2015,04,21,00,22,12.10
2015,04,21,00,23,12.10
2015,04,21,00,24,12.10
2015,04,21,00,25,12.10
2015,04,21,00,26,12.10
2015,04,21,00,27,12.10
2015,04,21,00,28,12.10
2015,04,21,00,29,12.10
2015,04,21,00,30,12.10
2015,04,21,00,31,12.10
2015,04,21,00,32,12.10
2015,04,21,00,33,12.10
2015,04,21,00,34,12.10
2015,04,21,00,35,12.10
2015,04,21,00,36,12.10
2015,04,21,00,37,12.20
2015,04,21,00,38,12.20
2015,04,21,00,39,12.20
2015,04,21,00,40,12.20
2015,04,21,00,41,12.30
2015,04,21,00,42,12.30
2015,04,21,00,43,12.30
2015,04,21,00,44,12.30
2015,04,21,00,45,12.30
2015,04,21,00,46,12.30
2015,04,21,00,47,12.30
2015,04,21,00,48,12.30
2015,04,21,00,49,12.20
2015,04,21,00,50,12.20
2015,04,21,00,51,12.20
2015,04,21,00,52,12.20
2015,04,21,00,53,12.10
2015,04,21,00,54,12.10
2015,04,21,00,55,12.10
2015,04,21,00,56,12.10
2015,04,21,00,57,12.00
2015,04,21,00,58,12.00
2015,04,21,00,59,12.10
2015,04,21,01,00,12.10
2015,04,21,01,01,12.10
2015,04,21,01,02,12.00
2015,04,21,01,03,12.00
2015,04,21,01,04,11.90
2015,04,21,01,05,11.90
2015,04,21,01,06,11.80
2015,04,21,01,07,11.80
2015,04,21,01,08,11.80
2015,04,21,01,09,11.70
2015,04,21,01,10,11.70
2015,04,21,01,11,11.70
2015,04,21,01,12,11.60
2015,04,21,01,13,11.60
2015,04,21,01,14,11.60
2015,04,21,01,15,11.60
2015,04,21,01,16,11.60
2015,04,21,01,17,11.60
2015,04,21,01,18,11.60
2015,04,21,01,19,11.60
2015,04,21,01,20,11.70
2015,04,21,01,21,11.70
2015,04,21,01,22,11.80
2015,04,21,01,23,11.80
2015,04,21,01,24,11.80
2015,04,21,01,25,11.80
2015,04,21,01,26,11.70
2015,04,21,01,27,11.70
2015,04,21,01,28,11.70
2015,04,21,01,29,11.60
2015,04,21,01,30,11.60
2015,04,21,01,31,11.60
2015,04,21,01,32,11.60
2015,04,21,01,33,11.50
2015,04,21,01,34,11.50
2015,04,21,01,35,11.50
2015,04,21,01,36,11.50
2015,04,21,01,37,11.40
2015,04,21,01,38,11.40
2015,04,21,01,39,11.40
2015,04,21,01,40,11.40
2015,04,21,01,41,11.40
2015,04,21,01,42,11.40
2015,04,21,01,43,11.40
2015,04,21,01,44,11.30
2015,04,21,01,45,11.40
2015,04,21,01,46,11.40
2015,04,21,01,47,11.40
2015,04,21,01,48,11.50
2015,04,21,01,49,11.50
2015,04,21,01,50,11.50
2015,04,21,01,51,11.50
2015,04,21,01,52,11.50
2015,04,21,01,53,11.50
2015,04,21,01,54,11.50
2015,04,21,01,55,11.40
2015,04,21,01,56,11.40
2015,04,21,01,57,11.40
2015,04,21,01,58,11.30
2015,04,21,01,59,11.30
2015,04,21,02,00,11.30
2015,04,21,02,01,11.30
2015,04,21,02,02,11.30
2015,04,21,02,03,11.20
2015,04,21,02,04,11.20
2015,04,21,02,05,11.20
2015,04,21,02,06,11.20
2015,04,21,02,07,11.20
2015,04,21,02,08,11.20
2015,04,21,02,09,11.10
2015,04,21,02,10,11.10
2015,04,21,02,11,11.10
2015,04,21,02,12,11.20
2015,04,21,02,13,11.20
2015,04,21,02,14,11.20
2015,04,21,02,15,11.20
2015,04,21,02,16,11.20
2015,04,21,02,17,11.20
2015,04,21,02,18,11.20
2015,04,21,02,19,11.20
2015,04,21,02,20,11.10
2015,04,21,02,21,11.10
2015,04,21,02,22,11.10
2015,04,21,02,23,11.10
2015,04,21,02,24,11.10
2015,04,21,02,25,11.00
2015,04,21,02,26,11.00
2015,04,21,02,27,11.00
2015,04,21,02,28,11.00
2015,04,21,02,29,11.00
2015,04,21,02,30,11.00
2015,04,21,02,31,11.00
2015,04,21,02,32,11.00
2015,04,21,02,33,10.90
2015,04,21,02,34,10.90
2015,04,21,02,35,10.90
2015,04,21,02,36,10.90
2015,04,21,02,37,10.90
2015,04,21,02,38,10.90
2015,04,21,02,39,10.80
2015,04,21,02,40,10.80
2015,04,21,02,41,10.80
2015,04,21,02,42,10.80
2015,04,21,02,43,10.80
2015,04,21,02,44,10.80
2015,04,21,02,45,10.80
2015,04,21,02,46,10.80
2015,04,21,02,47,10.70
2015,04,21,02,48,10.70
2015,04,21,02,49,10.70
2015,04,21,02,50,10.70
2015,04,21,02,51,10.70
2015,04,21,02,52,10.70
2015,04,21,02,53,10.70
2015,04,21,02,54,10.60
2015,04,21,02,55,10.60
2015,04,21,02,56,10.60
2015,04,21,02,57,10.60
2015,04,21,02,58,10.50
2015,04,21,02,59,10.40
2015,04,21,03,00,10.40
2015,04,21,03,01,10.30
2015,04,21,03,02,10.30
2015,04,21,03,03,10.30
2015,04,21,03,04,10.30
2015,04,21,03,05,10.30
2015,04,21,03,06,10.30
2015,04,21,03,07,10.30
2015,04,21,03,08,10.30
2015,04,21,03,09,10.30
2015,04,21,03,10,10.30
2015,04,21,03,11,10.30
2015,04,21,03,12,10.30
2015,04,21,03,13,10.20
2015,04,21,03,14,10.20
2015,04,21,03,15,10.20
2015,04,21,03,16,10.20
2015,04,21,03,17,10.20
2015,04,21,03,18,10.20
2015,04,21,03,19,10.20
2015,04,21,03,20,10.20
2015,04,21,03,21,10.20
2015,04,21,03,22,10.20
2015,04,21,03,23,10.20
2015,04,21,03,24,10.20
2015,04,21,03,25,10.20
2015,04,21,03,26,10.30
2015,04,21,03,27,10.30
2015,04,21,03,28,10.30
2015,04,21,03,29,10.30
2015,04,21,03,30,10.30
2015,04,21,03,31,10.30
2015,04,21,03,32,10.30
2015,04,21,03,33,10.30
2015,04,21,03,34,10.30
2015,04,21,03,35,10.20
2015,04,21,03,36,10.20
2015,04,21,03,37,10.20
2015,04,21,03,38,10.20
2015,04,21,03,39,10.20
2015,04,21,03,40,10.20
2015,04,21,03,41,10.20
2015,04,21,03,42,10.20
2015,04,21,03,43,10.30
2015,04,21,03,44,10.30
2015,04,21,03,45,10.30
2015,04,21,03,46,10.30
2015,04,21,03,47,10.30
2015,04,21,03,48,10.30
2015,04,21,03,49,10.30
2015,04,21,03,50,10.20
2015,04,21,03,51,10.20
2015,04,21,03,52,10.20
2015,04,21,03,53,10.20
2015,04,21,03,54,10.20
2015,04,21,03,55,10.20
2015,04,21,03,56,10.20
2015,04,21,03,57,10.30
2015,04,21,03,58,10.30
2015,04,21,03,59,10.30
2015,04,21,04,00,10.30
2015,04,21,04,01,10.20
2015,04,21,04,02,10.20
2015,04,21,04,03,10.20
2015,04,21,04,04,10.20
2015,04,21,04,05,10.20
2015,04,21,04,06,10.20
2015,04,21,04,07,10.20
2015,04,21,04,08,10.10
2015,04,21,04,09,10.10
2015,04,21,04,10,10.20
2015,04,21,04,11,10.10
2015,04,21,04,12,10.10
2015,04,21,04,13,10.10
2015,04,21,04,14,10.10
2015,04,21,04,15,10.00
2015,04,21,04,16,10.00
2015,04,21,04,17,10.00
2015,04,21,04,18,10.00
2015,04,21,04,19,10.10
2015,04,21,04,20,10.00
2015,04,21,04,21,10.00
2015,04,21,04,22,10.00
2015,04,21,04,23,10.00
2015,04,21,04,24,9.90
2015,04,21,04,25,9.80
2015,04,21,04,26,9.80
2015,04,21,04,27,9.70
2015,04,21,04,28,9.60
2015,04,21,04,29,9.60
2015,04,21,04,30,9.60
2015,04,21,04,31,9.60
2015,04,21,04,32,9.70
2015,04,21,04,33,9.70
2015,04,21,04,34,9.80
2015,04,21,04,35,9.90
2015,04,21,04,36,10.00
2015,04,21,04,37,10.10
2015,04,21,04,38,10.20
2015,04,21,04,39,10.20
2015,04,21,04,40,10.30
2015,04,21,04,41,10.30
2015,04,21,04,42,10.20
2015,04,21,04,43,10.10
2015,04,21,04,44,10.10
2015,04,21,04,45,10.10
2015,04,21,04,46,10.10
2015,04,21,04,47,10.00
2015,04,21,04,48,10.00
2015,04,21,04,49,9.90
2015,04,21,04,50,9.90
2015,04,21,04,51,9.90
2015,04,21,04,52,9.80
2015,04,21,04,53,9.80
2015,04,21,04,54,9.80
2015,04,21,04,55,9.90
2015,04,21,04,56,9.90
2015,04,21,04,57,9.90
2015,04,21,04,58,10.00
2015,04,21,04,59,10.00
2015,04,21,05,00,10.10
2015,04,21,05,01,10.10
2015,04,21,05,02,10.10
2015,04,21,05,03,10.10
2015,04,21,05,04,10.10
2015,04,21,05,05,10.10
2015,04,21,05,06,10.10
2015,04,21,05,07,10.00
2015,04,21,05,08,10.00
2015,04,21,05,09,10.00
2015,04,21,05,10,10.00
2015,04,21,05,11,9.90
2015,04,21,05,12,9.90
2015,04,21,05,13,9.80
2015,04,21,05,14,9.80
2015,04,21,05,15,9.80
2015,04,21,05,16,9.80
2015,04,21,05,17,9.70
2015,04,21,05,18,9.70
2015,04,21,05,19,9.70
2015,04,21,05,20,9.70
2015,04,21,05,21,9.70
2015,04,21,05,22,9.60
2015,04,21,05,23,9.60
2015,04,21,05,24,9.50
2015,04,21,05,25,9.50
2015,04,21,05,26,9.40
2015,04,21,05,27,9.40
2015,04,21,05,28,9.40
2015,04,21,05,29,9.30
2015,04,21,05,30,9.30
2015,04,21,05,31,9.30
2015,04,21,05,32,9.30
2015,04,21,05,33,9.30
2015,04,21,05,34,9.40
2015,04,21,05,35,9.40
2015,04,21,05,36,9.40
2015,04,21,05,37,9.40
2015,04,21,05,38,9.40
2015,04,21,05,39,9.30
2015,04,21,05,40,9.30
2015,04,21,05,41,9.20
2015,04,21,05,42,9.10
2015,04,21,05,43,9.10
2015,04,21,05,44,9.00
2015,04,21,05,45,9.00
2015,04,21,05,46,8.90
2015,04,21,05,47,8.90
2015,04,21,05,48,8.80
2015,04,21,05,49,8.80
2015,04,21,05,50,8.80
2015,04,21,05,51,8.80
2015,04,21,05,52,8.80
2015,04,21,05,53,8.80
2015,04,21,05,54,8.80
2015,04,21,05,55,8.80
2015,04,21,05,56,8.80
2015,04,21,05,57,8.80
2015,04,21,05,58,8.80
2015,04,21,05,59,8.80
2015,04,21,06,00,8.80
2015,04,21,06,01,8.80
2015,04,21,06,02,8.80
2015,04,21,06,03,8.80
2015,04,21,06,04,8.80
2015,04,21,06,05,8.70
2015,04,21,06,06,8.70
2015,04,21,06,07,8.70
2015,04,21,06,08,8.70
2015,04,21,06,09,8.70
2015,04,21,06,10,8.60
2015,04,21,06,11,8.60
2015,04,21,06,12,8.70
2015,04,21,06,13,8.70
2015,04,21,06,14,8.70
2015,04,21,06,15,8.80
2015,04,21,06,16,8.80
2015,04,21,06,17,8.80
2015,04,21,06,18,8.80
2015,04,21,06,19,8.80
2015,04,21,06,20,8.70
2015,04,21,06,21,8.70
2015,04,21,06,22,8.60
2015,04,21,06,23,8.60
2015,04,21,06,24,8.60
2015,04,21,06,25,8.60
2015,04,21,06,26,8.60
2015,04,21,06,27,8.60
2015,04,21,06,28,8.60
2015,04,21,06,29,8.70
2015,04,21,06,30,8.70
2015,04,21,06,31,8.80
2015,04,21,06,32,8.80
2015,04,21,06,33,8.80
2015,04,21,06,34,8.80
2015,04,21,06,35,8.80
2015,04,21,06,36,8.80
2015,04,21,06,37,8.80
2015,04,21,06,38,8.80
2015,04,21,06,39,8.80
2015,04,21,06,40,8.90
2015,04,21,06,41,8.90
2015,04,21,06,42,8.90
2015,04,21,06,43,8.90
2015,04,21,06,44,8.90
2015,04,21,06,45,8.90
2015,04,21,06,46,9.00
2015,04,21,06,47,9.00
2015,04,21,06,48,9.00
2015,04,21,06,49,9.10
2015,04,21,06,50,9.10
2015,04,21,06,51,9.10
2015,04,21,06,52,9.20
2015,04,21,06,53,9.20
2015,04,21,06,54,9.20
2015,04,21,06,55,9.30
2015,04,21,06,56,9.30
2015,04,21,06,57,9.30
2015,04,21,06,58,9.40
2015,04,21,06,59,9.40
2015,04,21,07,00,9.50
2015,04,21,07,01,9.50
2015,04,21,07,02,9.50
2015,04,21,07,03,9.50
2015,04,21,07,04,9.50
2015,04,21,07,05,9.50
2015,04,21,07,06,9.50
2015,04,21,07,07,9.60
2015,04,21,07,08,9.60
2015,04,21,07,09,9.60
2015,04,21,07,10,9.60
2015,04,21,07,11,9.70
2015,04,21,07,12,9.80
2015,04,21,07,13,9.90
2015,04,21,07,14,9.90
2015,04,21,07,15,10.00
2015,04,21,07,16,10.00
2015,04,21,07,17,10.10
2015,04,21,07,18,10.10
2015,04,21,07,19,10.10
2015,04,21,07,20,10.20
2015,04,21,07,21,10.20
2015,04,21,07,22,10.20
2015,04,21,07,23,10.30
2015,04,21,07,24,10.30
2015,04,21,07,25,10.40
2015,04,21,07,26,10.40
2015,04,21,07,27,10.50
2015,04,21,07,28,10.50
2015,04,21,07,29,10.60
2015,04,21,07,30,10.60
2015,04,21,07,31,10.60
2015,04,21,07,32,10.70
2015,04,21,07,33,10.70
2015,04,21,07,34,10.70
2015,04,21,07,35,10.60
2015,04,21,07,36,10.60
2015,04,21,07,37,10.60
2015,04,21,07,38,10.60
2015,04,21,07,39,10.60
2015,04,21,07,40,10.60
2015,04,21,07,41,10.60
2015,04,21,07,42,10.60
2015,04,21,07,43,10.60
2015,04,21,07,44,10.60
2015,04,21,07,45,10.60
2015,04,21,07,46,10.60
2015,04,21,07,47,10.70
2015,04,21,07,48,10.70
2015,04,21,07,49,10.80
2015,04,21,07,50,10.80
2015,04,21,07,51,10.90
2015,04,21,07,52,10.90
2015,04,21,07,53,11.00
2015,04,21,07,54,11.10
2015,04,21,07,55,11.10
2015,04,21,07,56,11.10
2015,04,21,07,57,11.20
2015,04,21,07,58,11.20
2015,04,21,07,59,11.30
2015,04,21,08,00,11.30
2015,04,21,08,01,11.30
2015,04,21,08,02,11.30
2015,04,21,08,03,11.40
2015,04,21,08,04,11.40
2015,04,21,08,05,11.40
2015,04,21,08,06,11.40
2015,04,21,08,07,11.40
2015,04,21,08,08,11.50
2015,04,21,08,09,11.50
2015,04,21,08,10,11.50
2015,04,21,08,11,11.50
2015,04,21,08,12,11.50
2015,04,21,08,13,11.50
2015,04,21,08,14,11.50
2015,04,21,08,15,11.50
2015,04,21,08,16,11.50
2015,04,21,08,17,11.50
2015,04,21,08,18,11.50
2015,04,21,08,19,11.50
2015,04,21,08,20,11.60
2015,04,21,08,21,11.60
2015,04,21,08,22,11.60
2015,04,21,08,23,11.70
2015,04,21,08,24,11.70
2015,04,21,08,25,11.80
2015,04,21,08,26,11.90
2015,04,21,08,27,12.00
2015,04,21,08,28,12.10
2015,04,21,08,29,12.20
2015,04,21,08,30,12.30
2015,04,21,08,31,12.40
2015,04,21,08,32,12.50
2015,04,21,08,33,12.60
2015,04,21,08,34,12.60
2015,04,21,08,35,12.70
2015,04,21,08,36,12.80
2015,04,21,08,37,12.80
2015,04,21,08,38,12.90
2015,04,21,08,39,12.90
2015,04,21,08,40,13.00
2015,04,21,08,41,13.10
2015,04,21,08,42,13.10
2015,04,21,08,43,13.10
2015,04,21,08,44,13.20
2015,04,21,08,45,13.30
2015,04,21,08,46,13.40
2015,04,21,08,47,13.40
2015,04,21,08,48,13.50
2015,04,21,08,49,13.60
2015,04,21,08,50,13.70
2015,04,21,08,51,13.70
2015,04,21,08,52,13.80
2015,04,21,08,53,13.90
2015,04,21,08,54,14.00
2015,04,21,08,55,14.10
2015,04,21,08,56,14.20
2015,04,21,08,57,14.30
2015,04,21,08,58,14.40
2015,04,21,08,59,14.40
2015,04,21,09,00,14.60
2015,04,21,09,01,14.70
2015,04,21,09,02,14.70
2015,04,21,09,03,14.80
2015,04,21,09,04,14.90
2015,04,21,09,05,15.00
2015,04,21,09,06,15.00
2015,04,21,09,07,15.00
2015,04,21,09,08,15.00
2015,04,21,09,09,15.00
2015,04,21,09,10,15.00
2015,04,21,09,11,15.00
2015,04,21,09,12,15.00
2015,04,21,09,13,15.00
2015,04,21,09,14,15.00
2015,04,21,09,15,15.00
2015,04,21,09,16,15.00
2015,04,21,09,17,15.10
2015,04,21,09,18,15.10
2015,04,21,09,19,15.20
2015,04,21,09,20,15.20
2015,04,21,09,21,15.20
2015,04,21,09,22,15.30
2015,04,21,09,23,15.30
2015,04,21,09,24,15.30
2015,04,21,09,25,15.30
2015,04,21,09,26,15.30
2015,04,21,09,27,15.20
2015,04,21,09,28,15.20
2015,04,21,09,29,15.20
2015,04,21,09,30,15.10
2015,04,21,09,31,15.10
2015,04,21,09,32,15.00
2015,04,21,09,33,15.00
2015,04,21,09,34,15.00
2015,04,21,09,35,15.00
2015,04,21,09,36,15.00
2015,04,21,09,37,15.10
2015,04,21,09,38,15.10
2015,04,21,09,39,15.10
2015,04,21,09,40,15.00
2015,04,21,09,41,15.00
2015,04,21,09,42,15.00
2015,04,21,09,43,15.00
2015,04,21,09,44,15.00
2015,04,21,09,45,15.00
2015,04,21,09,46,15.00
2015,04,21,09,47,15.00
2015,04,21,09,48,15.00
2015,04,21,09,49,15.00
2015,04,21,09,50,15.00
2015,04,21,09,51,15.00
2015,04,21,09,52,15.00
2015,04,21,09,53,15.00
2015,04,21,09,54,15.00
2015,04,21,09,55,15.00
2015,04,21,09,56,15.00
2015,04,21,09,57,15.00
2015,04,21,09,58,15.00
2015,04,21,09,59,15.00
2015,04,21,10,00,15.00
2015,04,21,10,01,15.10
2015,04,21,10,02,15.20
2015,04,21,10,03,15.20
2015,04,21,10,04,15.20
2015,04,21,10,05,15.30
2015,04,21,10,06,15.30
2015,04,21,10,07,15.30
2015,04,21,10,08,15.40
2015,04,21,10,09,15.40
2015,04,21,10,10,15.40
2015,04,21,10,11,15.40
2015,04,21,10,12,15.40
2015,04,21,10,13,15.40
2015,04,21,10,14,15.30
2015,04,21,10,15,15.30
2015,04,21,10,16,15.30
2015,04,21,10,17,15.30
2015,04,21,10,18,15.30
2015,04,21,10,19,15.30
2015,04,21,10,20,15.40
2015,04,21,10,21,15.40
2015,04,21,10,22,15.40
2015,04,21,10,23,15.40
2015,04,21,10,24,15.40
2015,04,21,10,25,15.40
2015,04,21,10,26,15.40
2015,04,21,10,27,15.40
2015,04,21,10,28,15.40
2015,04,21,10,29,15.40
2015,04,21,10,30,15.40
2015,04,21,10,31,15.40
2015,04,21,10,32,15.40
2015,04,21,10,33,15.40
2015,04,21,10,34,15.50
2015,04,21,10,35,15.50
2015,04,21,10,36,15.50
2015,04,21,10,37,15.50
2015,04,21,10,38,15.50
2015,04,21,10,39,15.50
2015,04,21,10,40,15.50
2015,04,21,10,41,15.50
2015,04,21,10,42,15.40
2015,04,21,10,43,15.40
2015,04,21,10,44,15.40
2015,04,21,10,45,15.40
2015,04,21,10,46,15.40
2015,04,21,10,47,15.40
2015,04,21,10,48,15.40
2015,04,21,10,49,15.30
2015,04,21,10,50,15.30
2015,04,21,10,51,15.30
2015,04,21,10,52,15.30
2015,04,21,10,53,15.30
2015,04,21,10,54,15.20
2015,04,21,10,55,15.20
2015,04,21,10,56,15.20
2015,04,21,10,57,15.20
2015,04,21,10,58,15.10
2015,04,21,10,59,15.10
2015,04,21,11,00,15.20
2015,04,21,11,01,15.20
2015,04,21,11,02,15.30
2015,04,21,11,03,15.30
2015,04,21,11,04,15.30
2015,04,21,11,05,15.30
2015,04,21,11,06,15.30
2015,04,21,11,07,15.20
2015,04,21,11,08,15.10
2015,04,21,11,09,15.00
2015,04,21,11,10,15.00
2015,04,21,11,11,15.00
2015,04,21,11,12,15.00
2015,04,21,11,13,15.00
2015,04,21,11,14,15.00
2015,04,21,11,15,15.00
2015,04,21,11,16,15.00
2015,04,21,11,17,15.10
2015,04,21,11,18,15.10
2015,04,21,11,19,15.20
2015,04,21,11,20,15.20
2015,04,21,11,21,15.30
2015,04,21,11,22,15.40
2015,04,21,11,23,15.50
2015,04,21,11,24,15.50
2015,04,21,11,25,15.50
2015,04,21,11,26,15.50
2015,04,21,11,27,15.50
2015,04,21,11,28,15.50
2015,04,21,11,29,15.50
2015,04,21,11,30,15.50
2015,04,21,11,31,15.60
2015,04,21,11,32,15.60
2015,04,21,11,33,15.50
2015,04,21,11,34,15.50
2015,04,21,11,35,15.50
2015,04,21,11,36,15.50
2015,04,21,11,37,15.50
2015,04,21,11,38,15.40
2015,04,21,11,39,15.30
2015,04,21,11,40,15.30
2015,04,21,11,41,15.30
2015,04,21,11,42,15.30
2015,04,21,11,43,15.20
2015,04,21,11,44,15.20
2015,04,21,11,45,15.10
2015,04,21,11,46,15.00
2015,04,21,11,47,15.00
2015,04,21,11,48,15.00
2015,04,21,11,49,15.10
2015,04,21,11,50,15.00
2015,04,21,11,51,15.00
2015,04,21,11,52,15.00
2015,04,21,11,53,15.00
2015,04,21,11,54,15.00
2015,04,21,11,55,15.00
2015,04,21,11,56,15.00
2015,04,21,11,57,15.00
2015,04,21,11,58,15.00
2015,04,21,11,59,15.00
2015,04,21,12,00,15.00
2015,04,21,12,01,15.00
2015,04,21,12,02,14.90
2015,04,21,12,03,14.80
2015,04,21,12,04,14.80
2015,04,21,12,05,14.80
2015,04,21,12,06,14.80
2015,04,21,12,07,14.80
2015,04,21,12,08,14.80
2015,04,21,12,09,14.80
2015,04,21,12,10,14.70
2015,04,21,12,11,14.60
2015,04,21,12,12,14.60
2015,04,21,12,13,14.50
2015,04,21,12,14,14.50
2015,04,21,12,15,14.50
2015,04,21,12,16,14.50
2015,04,21,12,17,14.50
2015,04,21,12,18,14.50
2015,04,21,12,19,14.50
2015,04,21,12,20,14.50
2015,04,21,12,21,14.50
2015,04,21,12,22,14.50
2015,04,21,12,23,14.50
2015,04,21,12,24,14.50
2015,04,21,12,25,14.50
2015,04,21,12,26,14.60
2015,04,21,12,27,14.60
2015,04,21,12,28,14.60
2015,04,21,12,29,14.50
2015,04,21,12,30,14.50
2015,04,21,12,31,14.50
2015,04,21,12,32,14.60
2015,04,21,12,33,14.60
2015,04,21,12,34,14.60
2015,04,21,12,35,14.60
2015,04,21,12,36,14.70
2015,04,21,12,37,14.70
2015,04,21,12,38,14.70
2015,04,21,12,39,14.70
2015,04,21,12,40,14.70
2015,04,21,12,41,14.70
2015,04,21,12,42,14.70
2015,04,21,12,43,14.70
2015,04,21,12,44,14.70
2015,04,21,12,45,14.60
2015,04,21,12,46,14.60
2015,04,21,12,47,14.60
2015,04,21,12,48,14.60
2015,04,21,12,49,14.60
2015,04,21,12,50,14.60
2015,04,21,12,51,14.60
2015,04,21,12,52,14.60
2015,04,21,12,53,14.60
2015,04,21,12,54,14.70
2015,04,21,12,55,14.70
2015,04,21,12,56,14.70
2015,04,21,12,57,14.60
2015,04,21,12,58,14.60
2015,04,21,12,59,14.60
2015,04,21,13,00,14.60
2015,04,21,13,01,14.60
2015,04,21,13,02,14.50
2015,04,21,13,03,14.50
2015,04,21,13,04,14.50
2015,04,21,13,05,14.50
2015,04,21,13,06,14.50
2015,04,21,13,07,14.40
2015,04,21,13,08,14.40
2015,04,21,13,09,14.40
2015,04,21,13,10,14.30
2015,04,21,13,11,14.30
2015,04,21,13,12,14.30
2015,04,21,13,13,14.20
2015,04,21,13,14,14.20
2015,04,21,13,15,14.20
2015,04,21,13,16,14.20
2015,04,21,13,17,14.20
2015,04,21,13,18,14.20
2015,04,21,13,19,14.30
2015,04,21,13,20,14.20
2015,04,21,13,21,14.20
2015,04,21,13,22,14.20
2015,04,21,13,23,14.20
2015,04,21,13,24,14.20
2015,04,21,13,25,14.20
2015,04,21,13,26,14.20
2015,04,21,13,27,14.20
2015,04,21,13,28,14.20
2015,04,21,13,29,14.20
2015,04,21,13,30,14.20
2015,04,21,13,31,14.20
2015,04,21,13,32,14.20
2015,04,21,13,33,14.20
2015,04,21,13,34,14.10
2015,04,21,13,35,14.10
2015,04,21,13,36,14.10
2015,04,21,13,37,14.00
2015,04,21,13,38,14.00
2015,04,21,13,39,14.00
2015,04,21,13,40,13.90
2015,04,21,13,41,13.90
2015,04,21,13,42,13.80
2015,04,21,13,43,13.80
2015,04,21,13,44,13.70
2015,04,21,13,45,13.70
2015,04,21,13,46,13.70
2015,04,21,13,47,13.70
2015,04,21,13,48,13.70
2015,04,21,13,49,13.60
2015,04,21,13,50,13.60
2015,04,21,13,51,13.60
2015,04,21,13,52,13.60
2015,04,21,13,53,13.60
2015,04,21,13,54,13.50
2015,04,21,13,55,13.50
2015,04,21,13,56,13.40
2015,04,21,13,57,13.40
2015,04,21,13,58,13.40
2015,04,21,13,59,13.40
2015,04,21,14,00,13.40
2015,04,21,14,01,13.40
2015,04,21,14,02,13.40
2015,04,21,14,03,13.50
2015,04,21,14,04,13.50
2015,04,21,14,05,13.60
2015,04,21,14,06,13.60
2015,04,21,14,07,13.60
2015,04,21,14,08,13.60
2015,04,21,14,09,13.60
2015,04,21,14,10,13.60
2015,04,21,14,11,13.60
2015,04,21,14,12,13.60
2015,04,21,14,13,13.60
2015,04,21,14,14,13.60
2015,04,21,14,15,13.60
2015,04,21,14,16,13.60
2015,04,21,14,17,13.60
2015,04,21,14,18,13.60
2015,04,21,14,19,13.60
2015,04,21,14,20,13.60
2015,04,21,14,21,13.60
2015,04,21,14,22,13.60
2015,04,21,14,23,13.50
2015,04,21,14,24,13.40
2015,04,21,14,25,13.40
2015,04,21,14,26,13.30
2015,04,21,14,27,13.30
2015,04,21,14,28,13.30
2015,04,21,14,29,13.30
2015,04,21,14,30,13.30
2015,04,21,14,31,13.30
2015,04,21,14,32,13.30
2015,04,21,14,33,13.30
2015,04,21,14,34,13.30
2015,04,21,14,35,13.30
2015,04,21,14,36,13.30
2015,04,21,14,37,13.30
2015,04,21,14,38,13.20
2015,04,21,14,39,13.20
2015,04,21,14,40,13.20
2015,04,21,14,41,13.20
2015,04,21,14,42,13.20
2015,04,21,14,43,13.20
2015,04,21,14,44,13.30
2015,04,21,14,45,13.30
2015,04,21,14,46,13.30
2015,04,21,14,47,13.30
2015,04,21,14,48,13.30
2015,04,21,14,49,13.30
2015,04,21,14,50,13.30
2015,04,21,14,51,13.30
2015,04,21,14,52,13.30
2015,04,21,14,53,13.30
2015,04,21,14,54,13.30
2015,04,21,14,55,13.30
2015,04,21,14,56,13.20
2015,04,21,14,57,13.20
2015,04,21,14,58,13.20
2015,04,21,14,59,13.10
2015,04,21,15,00,13.10
2015,04,21,15,01,13.00
2015,04,21,15,02,13.00
2015,04,21,15,03,12.90
2015,04,21,15,04,12.90
2015,04,21,15,05,12.90
2015,04,21,15,06,12.90
2015,04,21,15,07,12.90
2015,04,21,15,08,12.90
2015,04,21,15,09,12.90
2015,04,21,15,10,12.90
2015,04,21,15,11,12.90
2015,04,21,15,12,12.80
2015,04,21,15,13,12.80
2015,04,21,15,14,12.80
2015,04,21,15,15,12.80
2015,04,21,15,16,12.80
2015,04,21,15,17,12.80
2015,04,21,15,18,12.80
2015,04,21,15,19,12.80
2015,04,21,15,20,12.70
2015,04,21,15,21,12.70
2015,04,21,15,22,12.70
2015,04,21,15,23,12.60
2015,04,21,15,24,12.60
2015,04,21,15,25,12.50
2015,04,21,15,26,12.50
2015,04,21,15,27,12.50
2015,04,21,15,28,12.40
2015,04,21,15,29,12.40
2015,04,21,15,30,12.40
2015,04,21,15,31,12.40
2015,04,21,15,32,12.40
2015,04,21,15,33,12.40
2015,04,21,15,34,12.40
2015,04,21,15,35,12.40
2015,04,21,15,36,12.30
2015,04,21,15,37,12.30
2015,04,21,15,38,12.30
2015,04,21,15,39,12.30
2015,04,21,15,40,12.30
2015,04,21,15,41,12.30
2015,04,21,15,42,12.30
2015,04,21,15,43,12.30
2015,04,21,15,44,12.20
2015,04,21,15,45,12.20
2015,04,21,15,46,12.20
2015,04,21,15,47,12.20
2015,04,21,15,48,12.30
2015,04,21,15,49,12.30
2015,04,21,15,50,12.30
2015,04,21,15,51,12.40
2015,04,21,15,52,12.40
2015,04,21,15,53,12.40
2015,04,21,15,54,12.30
2015,04,21,15,55,12.30
2015,04,21,15,56,12.20
2015,04,21,15,57,12.20
2015,04,21,15,58,12.20
2015,04,21,15,59,12.10
2015,04,21,16,00,12.10
2015,04,21,16,01,12.00
2015,04,21,16,02,12.00
2015,04,21,16,03,11.90
2015,04,21,16,04,11.90
2015,04,21,16,05,11.90
2015,04,21,16,06,11.80
2015,04,21,16,07,11.80
2015,04,21,16,08,11.80
2015,04,21,16,09,11.70
2015,04,21,16,10,11.70
2015,04,21,16,11,11.60
2015,04,21,16,12,11.60
2015,04,21,16,13,11.60
2015,04,21,16,14,11.50
2015,04,21,16,15,11.50
2015,04,21,16,16,11.40
2015,04,21,16,17,11.40
2015,04,21,16,18,11.40
2015,04,21,16,19,11.30
2015,04,21,16,20,11.30
2015,04,21,16,21,11.30
2015,04,21,16,22,11.20
2015,04,21,16,23,11.20
2015,04,21,16,24,11.20
2015,04,21,16,25,11.20
2015,04,21,16,26,11.10
2015,04,21,16,27,11.10
2015,04,21,16,28,11.10
2015,04,21,16,29,11.00
2015,04,21,16,30,11.00
2015,04,21,16,31,10.90
2015,04,21,16,32,10.80
2015,04,21,16,33,10.80
2015,04,21,16,34,10.70
2015,04,21,16,35,10.70
2015,04,21,16,36,10.60
2015,04,21,16,37,10.60
2015,04,21,16,38,10.50
2015,04,21,16,39,10.50
2015,04,21,16,40,10.40
2015,04,21,16,41,10.40
2015,04,21,16,42,10.30
2015,04,21,16,43,10.30
2015,04,21,16,44,10.20
2015,04,21,16,45,10.20
2015,04,21,16,46,10.10
2015,04,21,16,47,10.10
2015,04,21,16,48,10.10
2015,04,21,16,49,10.00
2015,04,21,16,50,10.00
2015,04,21,16,51,9.90
2015,04,21,16,52,9.90
2015,04,21,16,53,9.90
2015,04,21,16,54,9.90
2015,04,21,16,55,9.90
2015,04,21,16,56,9.90
2015,04,21,16,57,9.90
2015,04,21,16,58,10.00
2015,04,21,16,59,10.00
2015,04,21,17,00,10.10
2015,04,21,17,01,10.10
2015,04,21,17,02,10.10
2015,04,21,17,03,10.10
2015,04,21,17,04,10.10
2015,04,21,17,05,10.00
2015,04,21,17,06,10.00
2015,04,21,17,07,9.90
2015,04,21,17,08,9.80
2015,04,21,17,09,9.80
2015,04,21,17,10,9.80
2015,04,21,17,11,9.80
2015,04,21,17,12,9.80
2015,04,21,17,13,9.80
2015,04,21,17,14,9.70
2015,04,21,17,15,9.70
2015,04,21,17,16,9.70
2015,04,21,17,17,9.70
2015,04,21,17,18,9.60
2015,04,21,17,19,9.60
2015,04,21,17,20,9.60
2015,04,21,17,21,9.60
2015,04,21,17,22,9.60
2015,04,21,17,23,9.60
2015,04,21,17,24,9.60
2015,04,21,17,25,9.60
2015,04,21,17,26,9.60